Regional Weather Roundup
Issued by NWS

Home | Current Version | Previous Version | Graphics & Text | Print | Product List | Glossary On
Versions: 1 2 3 4 5 6 7 8 9 10 11 12 13 14 15 16 17 18 19 20 21 22 23 24 25 26 27 28 29 30 31 32 33 34 35 36 37 38 39 40 41 42 43 44 45 46 47 48 49 50
000
ASUS43 KMPX 231210
RWRMN
WEATHER ROUNDUP FOR MINNESOTA
NATIONAL WEATHER SERVICE TWIN CITIES/CHANHASSEN MN
700 AM CDT SUN JUL 23 2017


NOTE: "FAIR" INDICATES FEW OR NO CLOUDS BELOW 12,000 FEET WITH NO
SIGNIFICANT WEATHER AND/OR OBSTRUCTIONS TO VISIBILITY. N/A MEANS
CURRENT SKY AND/OR WEATHER CONDITIONS ARE NOT AVAILABLE.

MNZ060>063-068>070-231300-
   Twin Cities Metro

CITY           SKY/WX    TMP DP  RH WIND       PRES   REMARKS
TWIN CITIES    MOSUNNY   69  56  62 NW12      29.88R
6HR MIN TEMP:  69; 6HR MAX TEMP:  73;

ST PAUL        MOSUNNY   67  58  72 NW7       29.87R
CRYSTAL        SUNNY     66  55  67 NW8       29.87R
BLAINE         MOSUNNY   66  57  72 NW6       29.87R
LAKEVILLE      MOSUNNY   66  57  72 NW7       29.88R
EDEN PRAIRIE   MOSUNNY   68  58  70 NW7       29.87R
6HR MIN TEMP:  68; 6HR MAX TEMP:  73;

SOUTH ST PAUL  PTSUNNY   69  56  62 NW8       29.87R
LAKE ELMO      FAIR      64  59  82 NW5       29.88R
$$
MNZ001>005-007-008-013>017-022>024-027-028-231300-
   Northwest Minnesota

CITY           SKY/WX    TMP DP  RH WIND       PRES   REMARKS
BEMIDJI        CLOUDY    60  58  93 NW8       29.92R
HALLOCK        CLOUDY    57  57 100 N7        29.97R
ROSEAU           N/A     63  57  82 N6        29.95R
WARROAD        PTSUNNY   64  61  88 NE12      29.95R
THIEF RVR FALL CLOUDY    62  60  93 N8        29.96R
CROOKSTON      CLOUDY    61  61 100 N7        29.96R
DETROIT LAKES  CLOUDY    61  57  88 NW5       29.95S
MOORHEAD       CLOUDY    61  59  94 NW8       29.96R
PARK RAPIDS    MOSUNNY   62  57  83 NW8       29.92R
MAHNOMEN       CLOUDY    61  59  94 NW7       29.94S
$$
MNZ006-009>011-018-025>026-231300-
   North Central Minnesota

CITY           SKY/WX    TMP DP  RH WIND       PRES   REMARKS
BAUDETTE       PTSUNNY   60  59  96 NE7       29.93R
FLAG ISLAND    MOSUNNY   63  61  94 NE6       29.95R
INTL FALLS     CLOUDY    61  56  83 NE7       29.92R
6HR MIN TEMP:  55; 6HR MAX TEMP:  61;

WASKISH        CLOUDY    61  57  88 N3        29.93R FOG
BIG FORK       LGT RAIN  61  59  94 N5        29.91R
LONGVILLE      CLOUDY    63  59  88 CALM      29.90R
GRAND RAPIDS   CLOUDY    61  58  90 N7        29.92R
CRANE LAKE     CLOUDY    57  57 100 CALM      29.92R
ORR            CLOUDY    59  55  88 CALM      29.89R
COOK           CLOUDY    57  57 100 CALM      29.91R
WALKER         CLOUDY    60  58  91 NW7       29.91R
$$
MNZ012-019>021-037-231300-
   Northeast Minnesota

CITY           SKY/WX    TMP DP  RH WIND       PRES   REMARKS
DULUTH         DRZL/FOG  54  54 100 E7        29.88R VSB 1/2
6HR MIN TEMP:  52; 6HR MAX TEMP:  55; 6HR PCP: TRACE;

ELY            CLOUDY    57  55  94 NE6       29.89R
HIBBING        CLOUDY    61  60  97 N8        29.88R
EVELETH        CLOUDY    60  60  98 N5        29.89R
DULUTH HARBOR  CLOUDY    57  55  94 NE9       29.88R FOG
TWO HARBORS    CLOUDY    59  54  82 CALM      29.86R
SILVER BAY     CLOUDY    57  55  94 CALM      29.86R
GRAND MARAIS     N/A     56  55  97 CALM      29.86R
G MARAIS ARPRT CLOUDY    55  52  88 N7        29.89R FOG
$$
MNZ029>031-032-039>041-046>048-054>057-064-231300-
   West Central Minnesota

CITY           SKY/WX    TMP DP  RH WIND       PRES   REMARKS
FERGUS FALLS   CLOUDY    61  61 100 NW8       29.96R
WHEATON        CLEAR     61  57  88 NW7       29.98R
MORRIS         CLEAR     61  57  88 NW7       29.94R
ALEXANDRIA     CLEAR     62  59  90 NW12      29.94R
ELBOW LAKE     CLOUDY    61  59  94 NW13      29.96R
WADENA         MOCLDY    61  57  88 NW8       29.93R
GLENWOOD       CLEAR     61  59  94 NW8       29.94R
APPLETON       CLEAR     63  57  82 NW6       29.94S
BENSON         CLEAR     61  57  88 N9        29.95R
ORTONVILLE     CLEAR     63  57  82 NW8       29.95S
MADISON        CLEAR     64  63  94 NW7       29.95R
WILLMAR        FAIR      63  61  94 W7        29.94R
$$
MNZ033>034-036-042>043-049>051-058-059-231300-
   Central Minnesota

CITY           SKY/WX    TMP DP  RH WIND       PRES   REMARKS
ST CLOUD       SUNNY     61  59  93 NW6       29.89R
6HR MIN TEMP:  60; 6HR MAX TEMP:  68;

SAUK CENTRE    FAIR      60  58  91 NW7       29.92R
PAYNESVILLE    CLEAR     60  58  93 W5        29.92R
AITKIN         MOSUNNY   61  57  88 CALM      29.88R
PINE RIVER     PTSUNNY   63  57  82 NW6       29.94R
BRAINERD       CLOUDY    63  57  81 NW9       29.90R
STAPLES        CLOUDY    61  57  88 NW6       29.92R
LONG PRAIRIE   MOCLDY    59  55  88 W8        29.93R
LITTLE FALLS   CLOUDY    61  55  82 W5        29.90R
LITCHFIELD     CLEAR     66  61  82 NW5       29.92R
BUFFALO        SUNNY     65  56  73 NW5       29.90R
MAPLE LAKE     SUNNY     64  59  82 NW6       29.90S
HUTCHINSON     CLEAR     65  60  85 W5        29.92R
$$
MNZ037-044-045-052-053-231300-
   East Central Minnesota

CITY           SKY/WX    TMP DP  RH WIND       PRES   REMARKS
PRINCETON      MOSUNNY   63  57  82 CALM      29.88S
MORA             N/A     59  54  82 CALM      29.89R
CAMBRIDGE      SUNNY     64  54  68 NW6       29.86R
RUSH CITY      SUNNY     61  57  87 NW3       29.88R
MOOSE LAKE     MOSUNNY   59  55  88 CALM      29.86R
HINCKLEY       FAIR      61  59  94 NW3       29.88R
CLOQUET        CLOUDY    57  55  94 NW6       29.88R
MCGREGOR       MOSUNNY   61  57  88 N5        29.89R
$$
MNZ071>073-080-081-089-090-097-098-231300-
   Southwest Minnesota

CITY           SKY/WX    TMP DP  RH WIND       PRES   REMARKS
MONTEVIDEO     CLEAR     64  57  77 N3        29.94R
GRANITE FALLS  CLEAR     62  60  94 W6        29.96R
CANBY          CLEAR     62  58  87 CALM      29.98R
MARSHALL       CLEAR     62  59  90 NW7       29.96R
REDWOOD FALLS  CLEAR     63  58  83 NW8       29.92R
OLIVIA         CLEAR     61  57  88 NW7       29.92S
PIPESTONE      CLEAR     64  57  77 N5        29.97S
WINDOM         CLEAR     64  59  82 NW8       29.94R
WORTHINGTON    CLEAR     63  59  87 NW8       29.96R
JACKSON        CLEAR     63  59  88 CALM      29.95R
SLAYTON        HVY RAIN  60  57  90 NW6       29.96S
$$
MNZ065>067-074>077-082>085-091>093-231300-
   South Central Minnesota

CITY           SKY/WX    TMP DP  RH WIND       PRES   REMARKS
MANKATO        CLEAR     66  61  84 N7        29.90R
NEW ULM        CLEAR     64  61  88 NW7       29.91R
ST JAMES       CLEAR     64  63  94 NW6       29.92R
FAIRMONT       PTCLDY    66  62  87 NW8       29.92R
GLENCOE        SUNNY     65  61  89 NW5       29.90R
FARIBAULT      CLOUDY    66  61  82 CALM      29.88R
OWATONNA       MOSUNNY   64  63  94 NW3       29.88R
WASECA         PTSUNNY   64  61  88 N5        29.90R
ALBERT LEA     SUNNY     68  66  94 N7        29.87S
$$
MNZ078>079-086>088-094>096-231300-
   Southeast Minnesota

CITY           SKY/WX    TMP DP  RH WIND       PRES   REMARKS
ROCHESTER      PTSUNNY   67  63  87 N5        29.87R
6HR MIN TEMP:  64; 6HR MAX TEMP:  68;

RED WING       PTSUNNY   66  63  88 CALM      29.85R
STANTON        CLOUDY    65  63  91 CALM      29.86R
DODGE CENTER   PTSUNNY   66  61  82 N5        29.87R
WINONA         PTSUNNY   64  64 100 CALM      29.85S
AUSTIN         SUNNY     64  63  94 CALM      29.86S
PRESTON        PTSUNNY   65  62  90 NW3       29.87S
$$
ABBREVIATIONS USED IN REMARKS
   TC - TEMPERATURES IN CELSIUS
  WCI - WIND CHILL INDEX
   HX - HEAT INDEX
  VSB - VISIBILITY
$$




USA.gov is the U.S. government's official web portal to all federal, state and local government web resources and services.